Location: Kellogg
(38.0159°N, 90.0546°W)
Time: 15:51:28
(UTC+00:00)

Transit 2A - Pass Details

Date: 22 September 2024
Orbit: 590 x 960 km, 66.7° (Epoch: 07 October)

Event Time Altitude Azimuth Distance (km) Brightness Sun altitude
Rises 09:15:58 0° 317° (NW) 3,573 - -29.8°
Reaches altitude 10° 09:19:11 10° 302° (WNW) 2,578 - -29.3°
Maximum altitude 09:23:27 21° 256° (WSW) 1,851 - -28.5°
Drops below altitude 10° 09:27:28 10° 210° (SSW) 2,399 - -27.8°
Sets 09:30:21 0° 194° (SSW) 3,254 - -27.3°
